Flag for Canada Weather past 2 weeks in Brampton, Ontario, Canada

Now
63 °F

Passing clouds.


Feels Like: 63 °F
Forecast: 52 / 75 °F
Wind: 2 mph from Northeast

Location: Toronto Pearson International Airport

Current Time: Aug 27, 2015 at 11:17:45 PM

Latest Report: Aug 27, 2015 at 10:00 PM


Visibility: 15 mi

Pressure: 30.16 "Hg

Humidity: 68%

Dew point: 52 °F

Location of BramptonLocation

Historic Weather in Brampton — Graph

°F

Brampton temperature yesterday

Maximum temperature yesterday: 68 °F (at 12:00 PM)
Minimum temperature yesterday: 59 °F (at 1:00 AM)
Average temperature yesterday: 62 °F

Past Weeks' High & Low Weather Summary

 TemperatureHumidityPressure
High90 °F (Aug 17, 3:00 PM)100% (Aug 19, 5:03 AM)30.21 "Hg (Aug 19, 5:03 AM)
Low55 °F (Aug 13, 4:00 AM)43% (Aug 17, 5:00 PM)29.71 "Hg (Aug 20, 6:00 AM)
Average70 °F71%29.98 "Hg
* Reported Aug 12 10:00 PM — Aug 27 10:00 PM, Brampton, Weather by CustomWeather, © 2015

Note: Actual official high and low records may vary slightly from our data, if they occured in-between our weather recording intervals... More about our weather records

Advertising

Brampton weather history for previous 24 hours

 ConditionsComfort  
Time TempWeatherWind HumidityBarometerVisibility
10:00 PM
Thu, Aug 27
63 °FPassing clouds.2 mph68%30.16 "Hg15 mi
9:00 PM64 °FPartly sunny.5 mph68%30.16 "Hg15 mi
8:00 PM64 °FPartly sunny.8 mph64%30.15 "Hg15 mi
7:00 PM66 °FPartly sunny.9 mph60%30.14 "Hg15 mi
6:00 PM66 °FOvercast.6 mph60%30.14 "Hg15 mi
5:00 PM66 °FOvercast.8 mph60%30.13 "Hg15 mi
4:00 PM66 °FPartly sunny.5 mph60%30.14 "Hg15 mi
3:00 PM66 °FPartly sunny.3 mph64%30.14 "Hg15 mi
2:00 PM64 °FOvercast.9 mph68%30.16 "Hg15 mi
1:00 PM64 °FPartly sunny.6 mph68%30.15 "Hg15 mi
12:00 PM64 °FPartly sunny.13 mph64%30.15 "Hg15 mi
11:00 AM63 °FPartly sunny.9 mph68%30.15 "Hg15 mi
10:00 AM63 °FBroken clouds.8 mph73%30.14 "Hg15 mi
9:00 AM61 °FScattered clouds.8 mph77%30.13 "Hg15 mi
8:00 AM59 °FPartly sunny.7 mph82%30.13 "Hg15 mi
7:00 AM59 °FPassing clouds.6 mph82%30.11 "Hg15 mi
6:00 AM59 °FPartly cloudy.8 mph82%30.09 "Hg15 mi
5:00 AM57 °FPassing clouds.7 mph88%30.09 "Hg15 mi
4:00 AM55 °FPassing clouds.6 mph88%30.08 "Hg15 mi
3:00 AM55 °FPassing clouds.9 mph88%30.07 "Hg15 mi
2:00 AM57 °FPassing clouds.9 mph82%30.08 "Hg15 mi
1:00 AM59 °FPassing clouds.9 mph77%30.08 "Hg15 mi
12:00 AM61 °FPassing clouds.12 mph72%30.08 "Hg15 mi
11:00 PM
Wed, Aug 26
59 °FPassing clouds.9 mph77%30.08 "Hg15 mi
Weather by CustomWeather, © 2015

See weather overviewHow to use our weather pages